Stations météo

réclame
Mon MeteoGroup
Kenley, Grande-Bretagne (3781): Température de l'air & dewpoint: 21.02.2020 00:00:00 - 27.02.2020 00:00:00 (GMT)Kenley, Grande-Bretagne (3781): Température de l'air -20cm & Température de l'air -100cm: 21.02.2020 00:00:00 - 27.02.2020 00:00:00 (GMT)Kenley, Grande-Bretagne (3781): Vitesse du vent & gusts: 21.02.2020 00:00:00 - 27.02.2020 00:00:00 (GMT)Kenley, Grande-Bretagne (3781): Direction du vent: 21.02.2020 00:00:00 - 27.02.2020 00:00:00 (GMT)Kenley, Grande-Bretagne (3781): reduced air pressure: 21.02.2020 00:00:00 - 27.02.2020 00:00:00 (GMT)Kenley, Grande-Bretagne (3781): visibility: 21.02.2020 00:00:00 - 27.02.2020 00:00:00 (GMT)Kenley, Grande-Bretagne (3781): Quantités de précipitations: 21.02.2020 00:00:00 - 27.02.2020 00:00:00 (GMT)
Date & Time tt [°C] td [°C] tt -20cm [°C] tt -100cm [°C] ff [km/h] ff [knt] fx [km/h] fx [knt] dd ppp [hPa] vv [km] rr [mm]
27.02.2020 00:00:00 2,3 -0,7 - - 11 6 - - SSW 1005,7 28 0,0
26.02.2020 23:00:00 2,4 -0,7 - - 11 6 - - SW 1007,1 35 0,0
26.02.2020 22:00:00 2,5 -0,6 - - 13 7 - - SW 1007,8 40 0,0
26.02.2020 21:00:00 2,9 -0,7 - - 15 8 - - W 1008,3 50 0,0
26.02.2020 20:00:00 2,7 -1,1 - - 11 6 - - WSW 1008,6 45 0,0
26.02.2020 19:00:00 3,2 -1,1 - - 15 8 - - W 1008,7 50 0,0
26.02.2020 18:00:00 3,4 -0,2 - - 9 5 - - W 1008,4 50 0,0
26.02.2020 17:00:00 4,3 -0,1 - - 13 7 - - WNW 1008,0 50 0,0
26.02.2020 16:00:00 3,4 0,9 - - 13 7 46 25 NW 1007,7 50 0,8
26.02.2020 15:00:00 7,1 -0,1 - - 26 14 - - WNW 1006,3 50 0,0
26.02.2020 14:00:00 6,8 0,2 - - 31 17 52 28 WNW 1006,0 29 0,0
26.02.2020 13:00:00 7,2 0,5 - - 26 14 - - WNW 1005,6 21 0,0
26.02.2020 12:00:00 5,5 0,3 - - 28 15 - - WNW 1005,5 40 0,0
26.02.2020 11:00:00 4,7 0,5 - - 31 17 52 28 WNW 1004,8 50 0,0
26.02.2020 10:00:00 4,1 0,5 - - 34 18 46 25 WNW 1004,1 40 0,0
26.02.2020 09:00:00 2,5 -0,4 6,7 7,7 28 15 - - W 1003,4 40 0,0
26.02.2020 08:00:00 1,2 -1,1 - - 26 14 - - W 1002,4 50 0,0
26.02.2020 07:00:00 0,5 -1,7 - - 24 13 - - W 1001,3 50 0,0
26.02.2020 06:00:00 0,3 -1,9 - - 24 13 - - W 1000,6 45 0,0
26.02.2020 05:00:00 0,5 -1,7 - - 24 13 - - W 999,9 50 0,0
26.02.2020 04:00:00 0,7 -1,6 - - 24 13 - - W 999,1 50 0,0
26.02.2020 03:00:00 1,0 -1,1 - - 21 11 - - W 998,6 40 0,0
26.02.2020 02:00:00 1,3 -0,8 - - 22 12 - - W 998,3 45 0,0
26.02.2020 01:00:00 1,5 -0,3 - - 24 13 - - W 998,0 50 0,0
26.02.2020 00:00:00 1,4 -0,6 - - 22 12 - - W 997,3 50 0,0
25.02.2020 23:00:00 1,6 -0,5 - - 26 14 - - W 996,9 50 0,0
25.02.2020 22:00:00 2,3 -0,2 - - 28 15 48 26 W 996,5 50 0,0
25.02.2020 21:00:00 2,3 -0,1 - - 29 16 - - W 996,3 45 0,0
25.02.2020 20:00:00 2,7 0,5 - - 28 15 46 25 W 996,2 45 0,0
25.02.2020 19:00:00 3,0 1,5 - - 24 13 - - W 996,4 50 0,0
25.02.2020 18:00:00 2,6 1,9 - - 15 8 46 25 WSW 996,5 50 1,4
25.02.2020 17:00:00 4,8 1,6 - - 15 8 - - SW 996,7 27 0,2
25.02.2020 16:00:00 5,4 1,4 - - 18 10 - - W 997,3 50 0,0
25.02.2020 15:00:00 4,8 3,2 - - 18 10 - - W 998,4 50 0,2
25.02.2020 14:00:00 7,0 1,0 - - 26 14 - - W 998,7 40 0,0
25.02.2020 13:00:00 6,6 1,1 - - 26 14 - - W 999,8 50 0,0
25.02.2020 12:00:00 6,6 2,3 - - 26 14 - - W 1000,5 40 0,0
25.02.2020 11:00:00 6,6 2,6 - - 24 13 - - W 1001,3 30 0,0
25.02.2020 10:00:00 6,0 2,3 - - 26 14 - - W 1001,8 50 0,0
25.02.2020 09:00:00 5,4 2,8 7,2 7,7 21 11 - - WSW 1002,5 45 0,0
25.02.2020 08:00:00 4,1 2,7 - - 15 8 - - SW 1003,2 40 0,0
25.02.2020 07:00:00 3,9 2,5 - - 18 10 - - SW 1003,5 45 0,0
25.02.2020 06:00:00 3,7 2,0 - - 18 10 - - SW 1004,0 45 0,0
25.02.2020 05:00:00 4,2 1,8 - - 24 13 - - WSW 1004,5 50 0,0
25.02.2020 04:00:00 4,9 2,2 - - 26 14 - - W 1004,4 50 0,0
25.02.2020 03:00:00 5,3 2,4 - - 22 12 - - WSW 1004,7 50 0,0
25.02.2020 02:00:00 5,6 3,4 - - 21 11 - - WSW 1005,1 50 0,0
25.02.2020 01:00:00 5,6 3,5 - - 21 11 - - WSW 1005,3 45 0,0
25.02.2020 00:00:00 5,7 2,7 - - 21 11 - - W 1005,6 50 0,0
24.02.2020 23:00:00 6,1 3,7 - - 22 12 - - W 1005,7 40 0,0
24.02.2020 22:00:00 7,3 4,7 - - 24 13 46 25 W 1005,7 35 0,0
24.02.2020 21:00:00 7,9 4,8 - - 35 19 50 27 W 1005,4 40 0,0
24.02.2020 20:00:00 8,8 5,2 - - 31 17 50 27 W 1005,7 50 0,0
24.02.2020 19:00:00 9,9 7,7 - - 26 14 52 28 WSW 1005,2 50 0,0
24.02.2020 18:00:00 10,2 8,7 - - 26 14 46 25 WSW 1004,6 45 0,0
24.02.2020 17:00:00 10,0 9,0 - - 28 15 52 28 WSW 1004,7 50 0,0
24.02.2020 16:00:00 9,7 9,0 - - 29 16 50 27 SW 1004,9 21 0,0
24.02.2020 15:00:00 9,5 8,9 - - 29 16 52 28 SW 1005,7 50 0,4
24.02.2020 14:00:00 9,3 8,8 - - 29 16 48 26 SW 1006,4 13 1,4
24.02.2020 13:00:00 9,2 8,7 - - 28 15 54 29 SW 1007,4 11 1,4
24.02.2020 12:00:00 9,3 8,8 - - 31 17 57 31 SW 1008,2 5 0,8
24.02.2020 11:00:00 9,3 8,7 - - 35 19 63 34 SW 1009,1 3,2 0,2
24.02.2020 10:00:00 9,5 8,7 - - 37 20 61 33 SW 1009,5 12 0,2
24.02.2020 09:00:00 9,3 8,5 7,2 7,7 39 21 59 32 SW 1010,8 4,9 0,0
24.02.2020 08:00:00 9,4 8,1 - - 34 18 59 32 SW 1011,1 16 0,0
24.02.2020 07:00:00 9,3 9,1 - - 37 20 57 31 SW 1012,4 18 0,2
24.02.2020 06:00:00 6,6 6,6 - - 15 8 - - S 1014,9 2,3 0,2
24.02.2020 05:00:00 5,6 5,5 - - 18 10 - - SSE 1016,4 6 1,0
24.02.2020 04:00:00 5,0 4,7 - - 15 8 - - SSE 1018,4 4,9 1,2
24.02.2020 03:00:00 5,2 3,7 - - 9 5 - - SE 1020,5 12 0,0
24.02.2020 02:00:00 5,1 3,3 - - 9 5 - - SSE 1022,2 8 0,2
24.02.2020 01:00:00 6,1 2,1 - - 5 3 - - SSE 1023,5 18 0,0
24.02.2020 00:00:00 6,5 1,6 - - 4 2 - - S 1023,7 40 0,0
23.02.2020 23:00:00 6,4 1,8 - - 5 3 - - SW 1024,2 50 0,0
23.02.2020 22:00:00 6,4 1,1 - - 5 3 - - WSW 1024,2 50 0,0
23.02.2020 21:00:00 6,5 1,2 - - 4 2 - - W 1024,2 50 0,0
23.02.2020 20:00:00 6,8 2,0 - - 4 2 - - W 1024,0 50 0,0
23.02.2020 19:00:00 7,0 1,4 - - 9 5 - - NW 1023,2 50 0,0
23.02.2020 18:00:00 8,3 1,3 - - 13 7 - - NW 1022,2 50 0,0
23.02.2020 17:00:00 8,9 1,9 - - 18 10 - - WNW 1020,7 50 0,0
23.02.2020 16:00:00 9,7 3,8 - - 24 13 50 27 NW 1019,3 50 0,0
23.02.2020 15:00:00 10,8 5,8 - - 28 15 50 27 WNW 1017,4 50 0,0
23.02.2020 14:00:00 12,1 7,7 - - 34 18 68 37 WNW 1015,6 40 0,0
23.02.2020 13:00:00 13,6 8,4 - - 48 26 83 45 W 1013,8 50 0,2
23.02.2020 12:00:00 13,3 9,8 - - 41 22 78 42 W 1013,3 50 0,0
23.02.2020 11:00:00 12,8 10,5 - - 42 23 61 33 WSW 1012,4 50 0,0
23.02.2020 10:00:00 11,8 10,1 - - 35 19 59 32 WSW 1012,2 25 0,0
23.02.2020 09:00:00 11,3 10,0 7,0 7,7 35 19 61 33 WSW 1011,7 21 0,0
23.02.2020 08:00:00 10,6 9,8 - - 31 17 59 32 WSW 1012,1 16 0,0
23.02.2020 07:00:00 10,4 9,7 - - 37 20 70 38 SW 1011,5 5 0,0
23.02.2020 06:00:00 10,5 9,7 - - 42 23 65 35 SW 1011,5 10 0,0
23.02.2020 05:00:00 10,6 9,9 - - 37 20 63 34 SW 1012,7 7 0,2
23.02.2020 04:00:00 9,7 9,3 - - 35 19 68 37 SW 1013,1 3,0 0,2
23.02.2020 03:00:00 8,5 8,1 - - 28 15 46 25 SSW 1015,3 3,4 0,2
23.02.2020 02:00:00 8,3 6,9 - - 22 12 - - SW 1018,7 9 0,0
23.02.2020 01:00:00 8,7 5,6 - - 22 12 - - WSW 1020,0 13 0,0
23.02.2020 00:00:00 8,5 6,4 - - 21 11 - - SW 1020,7 11 0,0
22.02.2020 23:00:00 8,4 5,5 - - 18 10 - - WSW 1021,4 17 0,0
22.02.2020 22:00:00 8,4 5,0 - - 24 13 46 25 WSW 1021,9 16 0,0
22.02.2020 21:00:00 8,5 5,0 - - 28 15 54 29 W 1021,9 15 0,0
22.02.2020 20:00:00 8,8 4,9 - - 28 15 50 27 W 1021,8 21 0,0
22.02.2020 19:00:00 9,5 4,0 - - 35 19 61 33 W 1021,2 24 0,0
22.02.2020 18:00:00 9,8 4,8 - - 26 14 - - W 1021,1 19 0,2
22.02.2020 17:00:00 9,9 5,8 - - 24 13 - - W 1020,3 11 0,0
22.02.2020 16:00:00 10,8 4,9 - - 31 17 52 28 W 1019,8 22 0,0
22.02.2020 15:00:00 11,7 5,1 - - 26 14 59 32 W 1019,0 23 0,0
22.02.2020 14:00:00 12,2 5,4 - - 39 21 63 34 W 1018,8 28 0,0
22.02.2020 13:00:00 11,9 6,2 - - 29 16 68 37 W 1018,7 30 0,0
22.02.2020 12:00:00 11,4 7,6 - - 34 18 65 35 WSW 1018,6 45 0,0
22.02.2020 11:00:00 10,1 9,3 - - 22 12 48 26 W 1018,1 26 0,0
22.02.2020 10:00:00 9,5 8,7 - - 31 17 54 29 SW 1017,1 5 0,0
22.02.2020 09:00:00 9,6 8,0 6,4 7,7 35 19 55 30 SW 1017,0 10 0,0
22.02.2020 08:00:00 9,3 7,4 - - 29 16 48 26 SW 1016,8 13 0,0
22.02.2020 07:00:00 8,9 6,9 - - 31 17 61 33 SW 1016,6 11 0,0
22.02.2020 06:00:00 8,8 6,4 - - 39 21 68 37 SW 1016,4 7 0,0
22.02.2020 05:00:00 8,7 5,7 - - 42 23 76 41 SW 1015,3 12 0,0
22.02.2020 04:00:00 8,5 5,0 - - 46 25 74 40 SW 1015,6 15 0,0
22.02.2020 03:00:00 8,2 5,2 - - 42 23 72 39 SW 1016,8 13 0,0
22.02.2020 02:00:00 8,2 5,0 - - 46 25 76 41 SW 1016,7 14 0,0
22.02.2020 01:00:00 7,9 4,7 - - 31 17 61 33 SW 1018,1 18 0,0
22.02.2020 00:00:00 8,2 4,8 - - 31 17 65 35 SW 1018,9 14 0,0
21.02.2020 23:00:00 8,4 4,7 - - 41 22 67 36 SW 1019,8 25 0,0
21.02.2020 22:00:00 8,4 4,8 - - 37 20 63 34 SW 1020,1 19 0,0
21.02.2020 21:00:00 8,4 4,9 - - 29 16 54 29 SW 1020,5 17 0,0
21.02.2020 20:00:00 8,4 5,1 - - 29 16 55 30 SW 1021,1 15 0,0
21.02.2020 19:00:00 8,4 5,3 - - 29 16 48 26 SW 1021,9 15 0,0
21.02.2020 18:00:00 8,3 5,2 - - 34 18 57 31 SW 1021,5 14 0,0
21.02.2020 17:00:00 8,4 5,2 - - 29 16 54 29 SW 1021,7 15 0,0
21.02.2020 16:00:00 8,4 4,9 - - 31 17 54 29 SW 1021,9 15 0,0
21.02.2020 15:00:00 8,7 4,8 - - 26 14 50 27 SW 1022,1 18 0,0
21.02.2020 14:00:00 9,0 4,7 - - 26 14 46 25 SW 1022,8 23 0,0
21.02.2020 13:00:00 8,4 4,4 - - 28 15 48 26 WSW 1023,0 24 0,0
21.02.2020 12:00:00 8,4 3,6 - - 29 16 54 29 WSW 1023,7 30 0,0
21.02.2020 11:00:00 7,9 2,9 - - 31 17 - - WSW 1024,1 28 0,0
21.02.2020 10:00:00 6,4 3,8 - - 21 11 - - SSW 1024,2 27 0,0
21.02.2020 09:00:00 5,3 2,9 6,2 7,7 21 11 - - SW 1024,5 25 0,0
21.02.2020 08:00:00 4,0 2,2 - - 18 10 - - SW 1024,3 23 0,0
21.02.2020 07:00:00 3,7 1,6 - - 16 9 - - SW 1024,4 22 0,0
21.02.2020 06:00:00 3,8 1,6 - - 18 10 - - WSW 1024,1 21 0,0
21.02.2020 05:00:00 3,6 1,3 - - 18 10 - - WSW 1024,3 21 0,0
21.02.2020 04:00:00 3,5 1,0 - - 21 11 - - WSW 1024,0 22 0,0
21.02.2020 03:00:00 2,8 0,1 - - 16 9 - - SW 1024,2 23 0,0
21.02.2020 02:00:00 3,5 0,3 - - 18 10 - - WSW 1023,9 30 0,0
21.02.2020 01:00:00 3,0 -0,1 - - 15 8 - - WSW 1023,4 30 0,0
21.02.2020 00:00:00 3,2 -0,2 - - 21 11 - - WSW 1022,5 30 0,0

tt = Température de l'air
td = dewpoint
tt -20cm = Température de l'air -20cm
tt -100cm = Température de l'air -100cm
ff = Vitesse du vent
fx = gusts
dd = Direction du vent
ppp = reduced air pressure
vv = visibility
rr = Quantités de précipitations

stations d'obs. à proximité